Location: Newark
(48.6461°N, 4.3644°W)
Time: 23:05:21
(UTC+00:00)

deb Explorer IX - Pass Details

Date: 02 February 2020
Orbit: 549 x 1099 km, 38.8° (Epoch: 19 February)

Event Time Altitude Azimuth Distance (km) Brightness Sun altitude
Rises 21:40:36 0° 258° (WSW) 3,557 ? -43.0°
Reaches altitude 10° 21:43:18 10° 250° (WSW) 2,693 ? -43.4°
Enters shadow 21:43:51 12° 247° (WSW) 2,531 ? -43.5°
